Time,TemperatureF,DewpointF,PressureIn,WindDirection,WindDirectionDegrees,WindSpeedMPH,WindSpeedGustMPH,Humidity,HourlyPrecipIn,Conditions,Clouds,dailyrainin,SolarRadiationWatts/m^2,SoftwareType,DateUTC
2013-04-06 00:02:00,31.0,25.0,-100.00,SE,128,7.0,15.0,77,0.00,,,0.00,0.000000,,2013-04-06 05:02:00,
2013-04-06 00:43:00,31.0,25.0,-100.00,ESE,118,6.0,14.0,79,0.00,,,0.00,0.000000,,2013-04-06 05:43:00,
2013-04-06 00:52:00,31.0,25.0,-100.00,ESE,118,6.0,14.0,79,0.00,,,0.00,0.000000,,2013-04-06 05:52:00,
2013-04-06 01:02:00,31.0,25.0,-100.00,ESE,118,6.0,14.0,79,0.00,,,0.00,0.000000,,2013-04-06 06:02:00,
2013-04-06 01:33:00,31.0,25.0,-100.00,SE,124,7.0,16.0,79,0.00,,,-99.99,0.000000,,2013-04-06 06:33:00,
2013-04-06 01:43:00,31.0,25.0,-100.00,SE,124,7.0,16.0,79,0.00,,,-99.99,0.000000,,2013-04-06 06:43:00,
2013-04-06 01:53:00,31.0,25.0,-100.00,SE,124,7.0,16.0,79,0.00,,,-99.99,0.000000,,2013-04-06 06:53:00,
2013-04-06 02:03:00,31.0,25.0,-100.00,SE,124,7.0,16.0,79,0.00,,,-99.99,0.000000,,2013-04-06 07:03:00,
2013-04-06 02:33:00,31.0,26.0,-100.00,ESE,120,6.0,13.0,82,0.00,,,0.00,0.000000,,2013-04-06 07:33:00,
2013-04-06 02:53:00,31.0,26.0,-100.00,ESE,120,6.0,13.0,82,0.00,,,0.00,0.000000,,2013-04-06 07:53:00,
2013-04-06 03:02:00,31.0,26.0,-100.00,ESE,120,6.0,13.0,82,0.00,,,0.00,0.000000,,2013-04-06 08:02:00,
2013-04-06 03:32:00,32.0,27.0,-100.00,ESE,122,5.0,15.0,83,0.00,,,0.00,0.000000,,2013-04-06 08:32:00,
2013-04-06 03:42:00,32.0,27.0,-100.00,ESE,122,5.0,15.0,83,0.00,,,0.00,0.000000,,2013-04-06 08:42:00,
2013-04-06 03:52:00,32.0,27.0,-100.00,ESE,122,5.0,15.0,83,0.00,,,0.00,0.000000,,2013-04-06 08:52:00,
2013-04-06 04:02:00,32.0,27.0,-100.00,ESE,122,5.0,15.0,83,0.00,,,0.00,0.000000,,2013-04-06 09:02:00,
2013-04-06 04:33:00,32.0,28.0,-100.00,ESE,114,5.0,13.0,84,0.00,,,-99.99,0.000000,,2013-04-06 09:33:00,
2013-04-06 04:43:00,32.0,28.0,-100.00,ESE,114,5.0,13.0,84,0.00,,,-99.99,0.000000,,2013-04-06 09:43:00,
2013-04-06 04:53:00,32.0,28.0,-100.00,ESE,114,5.0,13.0,84,0.00,,,-99.99,0.000000,,2013-04-06 09:53:00,
2013-04-06 05:03:00,32.0,28.0,-100.00,ESE,114,5.0,13.0,84,0.00,,,-99.99,0.000000,,2013-04-06 10:03:00,
2013-04-06 05:33:00,32.0,28.0,-100.00,ESE,105,4.0,11.0,84,0.00,,,-99.99,0.000000,,2013-04-06 10:33:00,
2013-04-06 05:43:00,32.0,28.0,-100.00,ESE,105,4.0,11.0,84,0.00,,,-99.99,0.000000,,2013-04-06 10:43:00,
2013-04-06 05:53:00,32.0,28.0,-100.00,ESE,105,4.0,11.0,84,0.00,,,-99.99,0.000000,,2013-04-06 10:53:00,
2013-04-06 06:02:00,32.0,28.0,-100.00,ESE,105,4.0,11.0,84,0.00,,,-99.99,0.000000,,2013-04-06 11:02:00,
2013-04-06 06:33:00,32.0,27.0,-100.00,ESE,117,5.0,11.0,83,0.00,,,0.00,0.000000,,2013-04-06 11:33:00,
2013-04-06 06:43:00,32.0,27.0,-100.00,ESE,117,5.0,11.0,83,0.00,,,0.00,0.000000,,2013-04-06 11:43:00,
2013-04-06 06:53:00,32.0,27.0,-100.00,ESE,117,5.0,11.0,83,0.00,,,0.00,0.000000,,2013-04-06 11:53:00,
2013-04-06 07:02:00,32.0,27.0,-100.00,ESE,117,5.0,11.0,83,0.00,,,0.00,0.000000,,2013-04-06 12:02:00,
2013-04-06 07:33:00,33.0,28.0,-100.00,ESE,114,5.0,13.0,83,0.00,,,0.00,1.000000,,2013-04-06 12:33:00,
2013-04-06 07:44:00,33.0,28.0,-100.00,ESE,114,5.0,13.0,83,0.00,,,0.00,1.000000,,2013-04-06 12:44:00,
2013-04-06 07:52:00,33.0,28.0,-100.00,ESE,114,5.0,13.0,83,0.00,,,0.00,1.000000,,2013-04-06 12:52:00,
2013-04-06 08:03:00,33.0,28.0,-100.00,ESE,114,5.0,13.0,83,0.00,,,0.00,1.000000,,2013-04-06 13:03:00,
2013-04-06 08:33:00,33.0,30.0,-100.00,East,90,4.0,10.0,89,0.01,,,0.01,12.000000,,2013-04-06 13:33:00,
2013-04-06 08:43:00,33.0,30.0,-100.00,East,90,4.0,10.0,89,0.01,,,0.01,12.000000,,2013-04-06 13:43:00,
2013-04-06 08:53:00,33.0,30.0,-100.00,East,90,4.0,10.0,89,0.01,,,0.01,12.000000,,2013-04-06 13:53:00,
2013-04-06 09:04:00,33.0,30.0,-100.00,East,90,4.0,10.0,89,0.01,,,0.01,12.000000,,2013-04-06 14:04:00,
2013-04-06 09:33:00,34.0,31.0,-100.00,East,84,4.0,8.0,87,0.02,,,0.03,68.000000,,2013-04-06 14:33:00,
2013-04-06 09:43:00,34.0,31.0,-100.00,East,84,4.0,8.0,87,0.02,,,0.03,68.000000,,2013-04-06 14:43:00,
2013-04-06 09:53:00,34.0,31.0,-100.00,East,84,4.0,8.0,87,0.02,,,0.03,68.000000,,2013-04-06 14:53:00,
2013-04-06 10:02:00,34.0,31.0,-100.00,East,84,4.0,8.0,87,0.02,,,0.03,68.000000,,2013-04-06 15:02:00,
2013-04-06 10:33:00,34.0,30.0,-100.00,ESE,107,4.0,9.0,86,0.00,,,0.03,131.000000,,2013-04-06 15:33:00,
2013-04-06 10:43:00,34.0,30.0,-100.00,ESE,107,4.0,9.0,86,0.00,,,0.03,131.000000,,2013-04-06 15:43:00,
2013-04-06 10:53:00,34.0,30.0,-100.00,ESE,107,4.0,9.0,86,0.00,,,0.03,131.000000,,2013-04-06 15:53:00,
2013-04-06 11:05:00,34.0,30.0,-100.00,ESE,107,4.0,9.0,86,0.00,,,0.03,131.000000,,2013-04-06 16:05:00,
2013-04-06 11:33:00,35.0,31.0,-100.00,ENE,74,3.0,8.0,86,0.00,,,0.03,70.000000,,2013-04-06 16:33:00,
2013-04-06 11:43:00,35.0,31.0,-100.00,ENE,74,3.0,8.0,86,0.00,,,0.03,70.000000,,2013-04-06 16:43:00,
2013-04-06 11:53:00,35.0,31.0,-100.00,ENE,74,3.0,8.0,86,0.00,,,0.03,70.000000,,2013-04-06 16:53:00,
2013-04-06 12:02:00,35.0,31.0,-100.00,ENE,74,3.0,8.0,86,0.00,,,0.03,70.000000,,2013-04-06 17:02:00,
2013-04-06 12:33:00,35.0,31.0,-100.00,NNE,28,3.0,5.0,86,0.00,,,0.03,74.000000,,2013-04-06 17:33:00,
2013-04-06 12:43:00,35.0,31.0,-100.00,NNE,28,3.0,5.0,86,0.00,,,0.03,74.000000,,2013-04-06 17:43:00,
2013-04-06 12:52:00,35.0,31.0,-100.00,NNE,28,3.0,5.0,86,0.00,,,0.03,74.000000,,2013-04-06 17:52:00,
2013-04-06 13:03:00,35.0,31.0,-100.00,NNE,28,3.0,5.0,86,0.00,,,0.03,74.000000,,2013-04-06 18:03:00,
2013-04-06 13:32:00,36.0,32.0,-100.00,NNE,33,3.0,6.0,84,0.00,,,0.03,124.000000,,2013-04-06 18:32:00,
2013-04-06 13:43:00,36.0,32.0,-100.00,NNE,33,3.0,6.0,84,0.00,,,0.03,124.000000,,2013-04-06 18:43:00,
2013-04-06 13:52:00,36.0,32.0,-100.00,NNE,33,3.0,6.0,84,0.00,,,0.03,124.000000,,2013-04-06 18:52:00,
2013-04-06 14:02:00,36.0,32.0,-100.00,NNE,33,3.0,6.0,84,0.00,,,0.03,124.000000,,2013-04-06 19:02:00,
2013-04-06 14:33:00,38.0,31.0,-100.00,NE,52,3.0,6.0,77,0.00,,,0.03,281.000000,,2013-04-06 19:33:00,
2013-04-06 14:42:00,38.0,31.0,-100.00,NE,52,3.0,6.0,77,0.00,,,0.03,281.000000,,2013-04-06 19:42:00,
2013-04-06 14:54:00,38.0,31.0,-100.00,NE,52,3.0,6.0,77,0.00,,,0.03,281.000000,,2013-04-06 19:54:00,
2013-04-06 15:03:00,38.0,31.0,-100.00,NE,52,3.0,6.0,77,0.00,,,0.03,281.000000,,2013-04-06 20:03:00,
2013-04-06 15:32:00,37.0,31.0,-100.00,NNW,334,4.0,8.0,78,0.00,,,0.03,192.000000,,2013-04-06 20:32:00,
2013-04-06 15:42:00,37.0,31.0,-100.00,NNW,334,4.0,8.0,78,0.00,,,0.03,192.000000,,2013-04-06 20:42:00,
2013-04-06 15:52:00,37.0,31.0,-100.00,NNW,334,4.0,8.0,78,0.00,,,0.03,192.000000,,2013-04-06 20:52:00,
2013-04-06 16:02:00,37.0,31.0,-100.00,NNW,334,4.0,8.0,78,0.00,,,0.03,192.000000,,2013-04-06 21:02:00,
2013-04-06 16:33:00,37.0,31.0,-100.00,NNW,347,5.0,10.0,80,0.00,,,0.03,135.000000,,2013-04-06 21:33:00,
2013-04-06 16:43:00,37.0,31.0,-100.00,NNW,347,5.0,10.0,80,0.00,,,0.03,135.000000,,2013-04-06 21:43:00,
2013-04-06 16:53:00,37.0,31.0,-100.00,NNW,347,5.0,10.0,80,0.00,,,0.03,135.000000,,2013-04-06 21:53:00,
2013-04-06 17:03:00,37.0,31.0,-100.00,NNW,347,5.0,10.0,80,0.00,,,0.03,135.000000,,2013-04-06 22:03:00,
2013-04-06 17:35:00,37.0,31.0,-100.00,North,359,5.0,9.0,78,0.00,,,0.03,179.000000,,2013-04-06 22:35:00,
2013-04-06 17:44:00,37.0,31.0,-100.00,North,359,5.0,9.0,78,0.00,,,0.03,179.000000,,2013-04-06 22:44:00,
2013-04-06 17:53:00,37.0,31.0,-100.00,North,359,5.0,9.0,78,0.00,,,0.03,179.000000,,2013-04-06 22:53:00,
2013-04-06 18:03:00,37.0,31.0,-100.00,North,359,5.0,9.0,78,0.00,,,0.03,179.000000,,2013-04-06 23:03:00,
2013-04-06 18:34:00,36.0,31.0,-100.00,NNW,335,5.0,12.0,81,0.00,,,0.03,76.000000,,2013-04-06 23:34:00,
2013-04-06 18:43:00,36.0,31.0,-100.00,NNW,335,5.0,12.0,81,0.00,,,0.03,76.000000,,2013-04-06 23:43:00,
2013-04-06 18:53:00,36.0,31.0,-100.00,NNW,335,5.0,12.0,81,0.00,,,0.03,76.000000,,2013-04-06 23:53:00,
2013-04-06 19:02:00,36.0,31.0,-100.00,NNW,335,5.0,12.0,81,0.00,,,0.03,76.000000,,2013-04-07 00:02:00,
2013-04-06 19:33:00,35.0,31.0,-100.00,NNW,341,5.0,12.0,85,0.00,,,0.03,34.000000,,2013-04-07 00:33:00,
2013-04-06 19:43:00,35.0,31.0,-100.00,NNW,341,5.0,12.0,85,0.00,,,0.03,34.000000,,2013-04-07 00:43:00,
2013-04-06 19:53:00,35.0,31.0,-100.00,NNW,341,5.0,12.0,85,0.00,,,0.03,34.000000,,2013-04-07 00:53:00,
2013-04-06 20:02:00,35.0,31.0,-100.00,NNW,341,5.0,12.0,85,0.00,,,0.03,34.000000,,2013-04-07 01:02:00,
2013-04-06 20:33:00,34.0,30.0,-100.00,NNW,335,5.0,11.0,84,0.00,,,0.03,7.000000,,2013-04-07 01:33:00,
2013-04-06 20:43:00,34.0,30.0,-100.00,NNW,335,5.0,11.0,84,0.00,,,0.03,7.000000,,2013-04-07 01:43:00,
2013-04-06 20:53:00,34.0,30.0,-100.00,NNW,335,5.0,11.0,84,0.00,,,0.03,7.000000,,2013-04-07 01:53:00,
2013-04-06 21:03:00,34.0,30.0,-100.00,NNW,335,5.0,11.0,84,0.00,,,0.03,7.000000,,2013-04-07 02:03:00,
2013-04-06 21:33:00,34.0,30.0,-100.00,NNW,340,7.0,19.0,84,0.00,,,0.03,0.000000,,2013-04-07 02:33:00,
2013-04-06 21:43:00,34.0,30.0,-100.00,NNW,340,7.0,19.0,84,0.00,,,0.03,0.000000,,2013-04-07 02:43:00,
2013-04-06 21:52:00,34.0,30.0,-100.00,NNW,340,7.0,19.0,84,0.00,,,0.03,0.000000,,2013-04-07 02:52:00,
2013-04-06 22:02:00,34.0,30.0,-100.00,NNW,340,7.0,19.0,84,0.00,,,0.03,0.000000,,2013-04-07 03:02:00,
2013-04-06 22:35:00,34.0,30.0,-100.00,NNW,334,5.0,14.0,86,0.00,,,0.03,0.000000,,2013-04-07 03:35:00,
2013-04-06 22:44:00,34.0,30.0,-100.00,NNW,334,5.0,14.0,86,0.00,,,0.03,0.000000,,2013-04-07 03:44:00,
2013-04-06 22:54:00,34.0,30.0,-100.00,NNW,334,5.0,14.0,86,0.00,,,0.03,0.000000,,2013-04-07 03:54:00,
2013-04-06 23:03:00,34.0,30.0,-100.00,NNW,334,5.0,14.0,86,0.00,,,0.03,0.000000,,2013-04-07 04:03:00,
2013-04-06 23:32:00,33.0,29.0,-100.00,NNW,343,4.0,11.0,86,0.00,,,0.03,0.000000,,2013-04-07 04:32:00,
2013-04-06 23:43:00,33.0,29.0,-100.00,NNW,343,4.0,11.0,86,0.00,,,0.03,0.000000,,2013-04-07 04:43:00,
2013-04-06 23:53:00,33.0,29.0,-100.00,NNW,343,4.0,11.0,86,0.00,,,0.03,0.000000,,2013-04-07 04:53:00,